Location: *
(46.1866°S, 178.5290°W)
Time: 10:26:57
(UTC+00:00)

SL-16 R/B - Pass Details

Date: 19 May 2021
Orbit: 842 x 848 km, 71.0° (Epoch: 14 June)

Event Time Altitude Azimuth Distance (km) Brightness Sun altitude
Rises 05:11:39 0° 10° (N) 3,393 5.5 -7.7°
Reaches altitude 10° 05:14:25 10° 22° (NNE) 2,467 4.6 -8.2°
Maximum altitude 05:19:03 27° 77° (ENE) 1,596 3.2 -8.9°
Drops below altitude 10° 05:23:44 10° 132° (SE) 2,494 4.1 -9.7°
Enters shadow 05:23:57 - 134° (SE) 2,564 4.2 -9.7°
